This is the latest recevied weather packets stored in our database for station/object KE1THD. If no packets are shown the sender has not sent any weather packets the latest 10 day(s).
| Time | Temp. | Humidity | Pressure | Rain* | Wind** | Luminosity | Snow |
|---|---|---|---|---|---|---|---|
| 1777861709 | 17.78° C | 49% | 1006.4 hPa | 0 mm | - | 0 W/m² | - |
| 1777861406 | 17.78° C | 49% | 1006.5 hPa | 0 mm | - | 0 W/m² | - |
| 1777861102 | 17.78° C | 48% | 1006.2 hPa | 0 mm | - | 0 W/m² | - |
| 1777860800 | 18.33° C | 49% | 1006.3 hPa | 0 mm | - | 0 W/m² | - |
| 1777860497 | 18.33° C | 48% | 1006.2 hPa | 0 mm | - | 0 W/m² | - |
| 1777860194 | 18.89° C | 47% | 1006.2 hPa | 0 mm | - | 0 W/m² | - |
| 1777859889 | 18.89° C | 48% | 1006.3 hPa | 0 mm | - | 0 W/m² | - |
| 1777859586 | 18.89° C | 47% | 1006.1 hPa | 0 mm | - | 0 W/m² | - |
| 1777859282 | 18.89° C | 47% | 1006 hPa | 0 mm | - | 0 W/m² | - |
| 1777858978 | 18.89° C | 46% | 1005.9 hPa | 0 mm | - | 0 W/m² | - |
| 1777858676 | 19.44° C | 45% | 1006 hPa | 0 mm | - | 0 W/m² | - |
| 1777858373 | 20° C | 45% | 1006.1 hPa | 0 mm | - | 0 W/m² | - |
| 1777858069 | 19.44° C | 45% | 1006 hPa | 0 mm | - | 0 W/m² | - |
| 1777857768 | 20° C | 45% | 1005.8 hPa | 0 mm | - | 0 W/m² | - |
| 1777857464 | 20° C | 44% | 1006 hPa | 0 mm | - | 0 W/m² | - |
| 1777857161 | 20° C | 44% | 1005.9 hPa | 0 mm | - | 0 W/m² | - |
| 1777856857 | 20° C | 45% | 1005.7 hPa | 0 mm | - | 0 W/m² | - |
| 1777856553 | 20° C | 44% | 1005.7 hPa | 0 mm | - | 2 W/m² | - |
| 1777856250 | 20.56° C | 44% | 1005.7 hPa | 0 mm | - | 4 W/m² | - |
| 1777855947 | 20.56° C | 44% | 1005.7 hPa | 0 mm | - | 6 W/m² | - |
| 1777855645 | 20.56° C | 43% | 1005.6 hPa | 0 mm | - | 10 W/m² | - |
| 1777855341 | 20.56° C | 43% | 1005.6 hPa | 0 mm | - | 13 W/m² | - |
| 1777855038 | 20.56° C | 44% | 1005.6 hPa | 0 mm | - | 18 W/m² | - |
| 1777854735 | 21.11° C | 44% | 1005.7 hPa | 0 mm | - | 20 W/m² | - |
| 1777854432 | 21.11° C | 42% | 1005.5 hPa | 0 mm | - | 24 W/m² | - |
* Rain latest hour (hover to see other rain measurements)
** Current wind speed in m/s (hover to see current wind gust speed)